Terminal Aerodrome Forecast
Issued by NWS

Home | Current Version | Previous Version | Text Only | Print | Product List | Glossary On
Versions: 1 2 3 4 5 6 7 8 9 10 11 12
000
FTUS46 KHNX 031730
TAFBFL
TAF
KBFL 031730Z 0318/0418 31005KT P6SM SKC
     FM032000 33012G17KT P6SM FEW250
     FM041100 35007KT P6SM FEW250=

USA.gov is the U.S. government's official web portal to all federal, state and local government web resources and services.